"Sample Date","Sample Time","Sample Value","Units","Flow Rate","Sample Interval","Number Channels","Micron Size 0","Counts/Channel 0","Micron Size 1","Counts/Channel 1","Micron Size 2","Counts/Channel 2","Micron Size 3","Counts/Channel 3","Micron Size 4","Counts/Channel 4","Micron Size 5","Counts/Channel 5","Micron Size 6","Counts/Channel 6","Micron Size 7","Counts/Channel 7","Micron Size 8","Counts/Channel 8","Micron Size 9","Counts/Channel 9","Micron Size 10","Counts/Channel 10","Micron Size 11","Counts/Channel 11","Micron Size 12","Counts/Channel 12","Micron Size 13","Counts/Channel 13","Micron Size 14","Counts/Channel 14","Micron Size 15","Counts/Channel 15","Micron Size 16","Counts/Channel 16","Micron Size 17","Counts/Channel 17","Micron Size 18","Counts/Channel 18","Micron Size 19","Counts/Channel 19","Micron Size 20","Counts/Channel 20","Micron Size 21","Counts/Channel 21","Micron Size 22","Counts/Channel 22","Micron Size 23","Counts/Channel 23","Micron Size 24","Counts/Channel 24","Micron Size 25","Counts/Channel 25","Micron Size 26","Counts/Channel 26","Micron Size 27","Counts/Channel 27","Micron Size 28","Counts/Channel 28","Micron Size 29","Counts/Channel 29","Micron Size 30","Counts/Channel 30","Micron Size 31","Counts/Channel 31"
"04/09/08","16:00:01",27732.000,"cc",28345.576,6.00,6,0.100,19650.000,0.200,3329.000,0.300,1743.000,0.500,2089.000,1.000,921.000,5.000,0
"04/09/08","16:00:07",28239.000,"cc",28336.139,6.00,6,0.100,19905.000,0.200,3405.000,0.300,1753.000,0.500,2163.000,1.000,1012.000,5.000,1.000
"04/09/08","16:00:13",28381.000,"cc",28368.695,6.00,6,0.100,20066.000,0.200,3369.000,0.300,1727.000,0.500,2246.000,1.000,971.000,5.000,2.000
"04/09/08","16:00:19",28451.000,"cc",28335.029,6.00,6,0.100,20076.000,0.200,3518.000,0.300,1705.000,0.500,2128.000,1.000,1024.000,5.000,0
"04/09/08","16:00:25",28874.000,"cc",28143.590,6.00,6,0.100,20446.000,0.200,3473.000,0.300,1781.000,0.500,2122.000,1.000,1052.000,5.000,0
"04/09/08","16:00:31",29242.000,"cc",28282.088,6.00,6,0.100,20769.000,0.200,3490.000,0.300,1706.000,0.500,2260.000,1.000,1016.000,5.000,1.000
"04/09/08","16:00:37",28742.000,"cc",28391.717,6.00,6,0.100,20697.000,0.200,3250.000,0.300,1733.000,0.500,2099.000,1.000,962.000,5.000,1.000
"04/09/08","16:00:43",28543.000,"cc",28194.900,6.00,6,0.100,20536.000,0.200,3306.000,0.300,1674.000,0.500,2061.000,1.000,965.000,5.000,1.000
"04/09/08","16:00:49",29344.000,"cc",28133.092,6.00,6,0.100,20650.000,0.200,3612.000,0.300,1822.000,0.500,2215.000,1.000,1045.000,5.000,0
"04/09/08","16:00:55",31353.000,"cc",28302.568,6.00,6,0.100,21474.000,0.200,3818.000,0.300,2118.000,0.500,2644.000,1.000,1298.000,5.000,1.000
"04/09/08","16:01:01",29063.000,"cc",28363.900,6.00,6,0.100,21012.000,0.200,3329.000,0.300,1691.000,0.500,2046.000,1.000,985.000,5.000,0
"04/09/08","16:01:07",28825.000,"cc",28318.494,6.00,6,0.100,20782.000,0.200,3346.000,0.300,1738.000,0.500,1997.000,1.000,961.000,5.000,1.000
"04/09/08","16:01:13",28824.000,"cc",28477.275,6.00,6,0.100,20645.000,0.200,3450.000,0.300,1707.000,0.500,2035.000,1.000,987.000,5.000,0
"04/09/08","16:01:19",28826.000,"cc",28274.648,6.00,6,0.100,20422.000,0.200,3444.000,0.300,1760.000,0.500,2198.000,1.000,1002.000,5.000,0
"04/09/08","16:01:25",28937.000,"cc",28334.645,6.00,6,0.100,20663.000,0.200,3345.000,0.300,1749.000,0.500,2148.000,1.000,1032.000,5.000,0
"04/09/08","16:01:31",29199.000,"cc",28290.229,6.00,6,0.100,20656.000,0.200,3441.000,0.300,1817.000,0.500,2239.000,1.000,1046.000,5.000,0
"04/09/08","16:01:37",28697.000,"cc",28323.691,6.00,6,0.100,20425.000,0.200,3395.000,0.300,1725.000,0.500,2165.000,1.000,987.000,5.000,0
"04/09/08","16:01:43",28817.000,"cc",28374.156,6.00,6,0.100,20507.000,0.200,3420.000,0.300,1721.000,0.500,2166.000,1.000,1002.000,5.000,1.000
"04/09/08","16:01:49",28583.000,"cc",28226.180,6.00,6,0.100,20369.000,0.200,3412.000,0.300,1692.000,0.500,2086.000,1.000,1024.000,5.000,0
"04/09/08","16:01:55",28292.000,"cc",28340.313,6.00,6,0.100,20211.000,0.200,3298.000,0.300,1706.000,0.500,2105.000,1.000,972.000,5.000,0
"04/09/08","16:02:01",28671.000,"cc",28333.373,6.00,6,0.100,20507.000,0.200,3323.000,0.300,1775.000,0.500,2093.000,1.000,973.000,5.000,0
"04/09/08","16:02:07",28437.000,"cc",28304.654,6.00,6,0.100,20214.000,0.200,3347.000,0.300,1780.000,0.500,2151.000,1.000,945.000,5.000,0
"04/09/08","16:02:13",28432.000,"cc",28356.031,6.00,6,0.100,20289.000,0.200,3383.000,0.300,1697.000,0.500,2062.000,1.000,1001.000,5.000,0
"04/09/08","16:02:19",28409.000,"cc",28419.209,6.00,6,0.100,20460.000,0.200,3306.000,0.300,1654.000,0.500,2000.000,1.000,989.000,5.000,0
"04/09/08","16:02:25",27831.000,"cc",28324.068,6.00,6,0.100,20204.000,0.200,3147.000,0.300,1602.000,0.500,1957.000,1.000,921.000,5.000,0
"04/09/08","16:02:31",27911.000,"cc",28369.713,6.00,6,0.100,20255.000,0.200,3128.000,0.300,1629.000,0.500,1966.000,1.000,933.000,5.000,0
"04/09/08","16:02:37",27792.000,"cc",28367.889,6.00,6,0.100,20160.000,0.200,3136.000,0.300,1674.000,0.500,1901.000,1.000,921.000,5.000,0
"04/09/08","16:02:43",28328.000,"cc",28216.072,6.00,6,0.100,20452.000,0.200,3274.000,0.300,1638.000,0.500,2014.000,1.000,949.000,5.000,1.000
"04/09/08","16:02:49",28870.000,"cc",28196.059,6.00,6,0.100,20725.000,0.200,3384.000,0.300,1707.000,0.500,2062.000,1.000,992.000,5.000,0
"04/09/08","16:02:55",28754.000,"cc",28456.041,6.00,6,0.100,21209.000,0.200,3154.000,0.300,1577.000,0.500,1871.000,1.000,943.000,5.000,0
"04/09/08","16:03:01",29411.000,"cc",28391.971,6.00,6,0.100,21520.000,0.200,3313.000,0.300,1678.000,0.500,1972.000,1.000,928.000,5.000,0
"04/09/08","16:03:07",29023.000,"cc",28367.801,6.00,6,0.100,21120.000,0.200,3291.000,0.300,1591.000,0.500,2066.000,1.000,954.000,5.000,1.000
"04/09/08","16:03:13",29252.000,"cc",28261.287,6.00,6,0.100,21537.000,0.200,3193.000,0.300,1573.000,0.500,2023.000,1.000,925.000,5.000,1.000
"04/09/08","16:03:19",29517.000,"cc",28342.514,6.00,6,0.100,21540.000,0.200,3317.000,0.300,1673.000,0.500,2059.000,1.000,927.000,5.000,1.000
"04/09/08","16:03:25",29546.000,"cc",28367.615,6.00,6,0.100,21781.000,0.200,3289.000,0.300,1641.000,0.500,1957.000,1.000,878.000,5.000,0
"04/09/08","16:03:31",29464.000,"cc",28275.652,6.00,6,0.100,21583.000,0.200,3390.000,0.300,1582.000,0.500,1937.000,1.000,971.000,5.000,1.000
"04/09/08","16:03:37",30093.000,"cc",28203.197,6.00,6,0.100,21830.000,0.200,3377.000,0.300,1755.000,0.500,2124.000,1.000,1007.000,5.000,0
"04/09/08","16:03:43",30092.000,"cc",28258.037,6.00,6,0.100,21801.000,0.200,3465.000,0.300,1787.000,0.500,2074.000,1.000,965.000,5.000,0
"04/09/08","16:03:49",29748.000,"cc",28389.881,6.00,6,0.100,21294.000,0.200,3445.000,0.300,1779.000,0.500,2174.000,1.000,1056.000,5.000,0
"04/09/08","16:03:55",29304.000,"cc",28376.092,6.00,6,0.100,21308.000,0.200,3346.000,0.300,1643.000,0.500,2033.000,1.000,973.000,5.000,1.000
"04/09/08","16:04:01",28668.000,"cc",28351.908,6.00,6,0.100,20788.000,0.200,3298.000,0.300,1630.000,0.500,2066.000,1.000,886.000,5.000,0
"04/09/08","16:04:07",29084.000,"cc",28335.932,6.00,6,0.100,21155.000,0.200,3267.000,0.300,1656.000,0.500,2058.000,1.000,948.000,5.000,0
"04/09/08","16:04:13",29010.000,"cc",28278.709,6.00,6,0.100,21021.000,0.200,3281.000,0.300,1654.000,0.500,2042.000,1.000,1012.000,5.000,0
"04/09/08","16:04:19",29097.000,"cc",28307.715,6.00,6,0.100,21098.000,0.200,3316.000,0.300,1657.000,0.500,1998.000,1.000,1028.000,5.000,0
"04/09/08","16:04:25",29003.000,"cc",28279.857,6.00,6,0.100,20914.000,0.200,3340.000,0.300,1706.000,0.500,2024.000,1.000,1019.000,5.000,0
"04/09/08","16:04:31",29669.000,"cc",28216.898,6.00,6,0.100,21347.000,0.200,3453.000,0.300,1743.000,0.500,2128.000,1.000,998.000,5.000,0
"04/09/08","16:04:37",29927.000,"cc",28375.389,6.00,6,0.100,21811.000,0.200,3397.000,0.300,1692.000,0.500,2050.000,1.000,977.000,5.000,0
"04/09/08","16:04:43",29537.000,"cc",28365.707,6.00,6,0.100,21479.000,0.200,3403.000,0.300,1690.000,0.500,1975.000,1.000,988.000,5.000,2.000
"04/09/08","16:04:49",29491.000,"cc",28253.619,6.00,6,0.100,21359.000,0.200,3350.000,0.300,1747.000,0.500,2121.000,1.000,913.000,5.000,1.000
"04/09/08","16:04:55",29564.000,"cc",28271.250,6.00,6,0.100,21610.000,0.200,3323.000,0.300,1607.000,0.500,2054.000,1.000,970.000,5.000,0
"04/09/08","16:05:01",29491.000,"cc",28297.699,6.00,6,0.100,21191.000,0.200,3430.000,0.300,1765.000,0.500,2111.000,1.000,994.000,5.000,0
"04/09/08","16:05:07",29956.000,"cc",28381.805,6.00,6,0.100,21573.000,0.200,3480.000,0.300,1755.000,0.500,2163.000,1.000,985.000,5.000,0
"04/09/08","16:05:13",28927.000,"cc",28288.252,6.00,6,0.100,21032.000,0.200,3268.000,0.300,1632.000,0.500,2055.000,1.000,940.000,5.000,0
"04/09/08","16:05:19",28014.000,"cc",28424.900,6.00,6,0.100,20171.000,0.200,3275.000,0.300,1642.000,0.500,1926.000,1.000,1000.000,5.000,0
"04/09/08","16:05:25",28512.000,"cc",28219.352,6.00,6,0.100,20401.000,0.200,3395.000,0.300,1730.000,0.500,2001.000,1.000,985.000,5.000,0
"04/09/08","16:05:31",28677.000,"cc",28269.246,6.00,6,0.100,20565.000,0.200,3420.000,0.300,1721.000,0.500,1986.000,1.000,985.000,5.000,0
"04/09/08","16:05:37",28466.000,"cc",28207.012,6.00,6,0.100,20403.000,0.200,3313.000,0.300,1646.000,0.500,2110.000,1.000,994.000,5.000,0
"04/09/08","16:05:43",36957.000,"cc",28102.254,6.00,6,0.100,22911.000,0.200,5075.000,0.300,3118.000,0.500,3699.000,1.000,2154.000,5.000,0
"04/09/08","16:05:49",29288.000,"cc",28252.203,6.00,6,0.100,20792.000,0.200,3428.000,0.300,1846.000,0.500,2168.000,1.000,1054.000,5.000,0
"04/09/08","16:05:55",28784.000,"cc",28319.996,6.00,6,0.100,20517.000,0.200,3437.000,0.300,1683.000,0.500,2104.000,1.000,1043.000,5.000,0
"04/09/08","16:06:01",28876.000,"cc",28341.727,6.00,6,0.100,20345.000,0.200,3529.000,0.300,1823.000,0.500,2166.000,1.000,1012.000,5.000,1.000
"04/09/08","16:06:07",28391.000,"cc",28425.662,6.00,6,0.100,20114.000,0.200,3466.000,0.300,1737.000,0.500,2125.000,1.000,949.000,5.000,0
"04/09/08","16:06:13",28463.000,"cc",28384.633,6.00,6,0.100,20522.000,0.200,3333.000,0.300,1647.000,0.500,2021.000,1.000,939.000,5.000,1.000
"04/09/08","16:06:19",28792.000,"cc",28386.502,6.00,6,0.100,20899.000,0.200,3252.000,0.300,1638.000,0.500,2037.000,1.000,966.000,5.000,0
"04/09/08","16:06:25",29017.000,"cc",28320.596,6.00,6,0.100,21135.000,0.200,3385.000,0.300,1612.000,0.500,1991.000,1.000,894.000,5.000,0
"04/09/08","16:06:31",28624.000,"cc",28267.078,6.00,6,0.100,20586.000,0.200,3248.000,0.300,1667.000,0.500,2089.000,1.000,1034.000,5.000,0
"04/09/08","16:06:37",29067.000,"cc",28287.797,6.00,6,0.100,20961.000,0.200,3312.000,0.300,1712.000,0.500,2034.000,1.000,1048.000,5.000,0
"04/09/08","16:06:43",29383.000,"cc",28365.768,6.00,6,0.100,21287.000,0.200,3286.000,0.300,1677.000,0.500,2098.000,1.000,1034.000,5.000,1.000
"04/09/08","16:06:49",28992.000,"cc",28299.781,6.00,6,0.100,20911.000,0.200,3293.000,0.300,1744.000,0.500,2049.000,1.000,995.000,5.000,0
"04/09/08","16:06:55",29133.000,"cc",28328.738,6.00,6,0.100,21043.000,0.200,3317.000,0.300,1717.000,0.500,2100.000,1.000,956.000,5.000,0
"04/09/08","16:07:01",29236.000,"cc",28271.736,6.00,6,0.100,21182.000,0.200,3292.000,0.300,1686.000,0.500,2080.000,1.000,996.000,5.000,0
"04/09/08","16:07:07",29375.000,"cc",28288.867,6.00,6,0.100,21129.000,0.200,3441.000,0.300,1661.000,0.500,2109.000,1.000,1035.000,5.000,0
"04/09/08","16:07:13",28956.000,"cc",28377.969,6.00,6,0.100,20971.000,0.200,3398.000,0.300,1655.000,0.500,1966.000,1.000,965.000,5.000,1.000
"04/09/08","16:07:19",29439.000,"cc",28297.084,6.00,6,0.100,21184.000,0.200,3380.000,0.300,1726.000,0.500,2146.000,1.000,1003.000,5.000,0
"04/09/08","16:07:25",29044.000,"cc",28269.014,6.00,6,0.100,20871.000,0.200,3351.000,0.300,1711.000,0.500,2141.000,1.000,969.000,5.000,1.000
"04/09/08","16:07:31",29055.000,"cc",28325.947,6.00,6,0.100,20981.000,0.200,3223.000,0.300,1694.000,0.500,2201.000,1.000,956.000,5.000,0
"04/09/08","16:07:37",29108.000,"cc",28339.783,6.00,6,0.100,20838.000,0.200,3391.000,0.300,1713.000,0.500,2158.000,1.000,1008.000,5.000,0
"04/09/08","16:07:43",28522.000,"cc",28282.426,6.00,6,0.100,20412.000,0.200,3344.000,0.300,1660.000,0.500,2146.000,1.000,959.000,5.000,1.000
"04/09/08","16:07:49",29169.000,"cc",28200.570,6.00,6,0.100,20747.000,0.200,3433.000,0.300,1776.000,0.500,2199.000,1.000,1014.000,5.000,0
"04/09/08","16:07:55",28984.000,"cc",28329.229,6.00,6,0.100,20665.000,0.200,3323.000,0.300,1747.000,0.500,2225.000,1.000,1023.000,5.000,1.000
"04/09/08","16:08:01",28992.000,"cc",28361.883,6.00,6,0.100,20715.000,0.200,3445.000,0.300,1725.000,0.500,2115.000,1.000,991.000,5.000,1.000
"04/09/08","16:08:07",28890.000,"cc",28314.285,6.00,6,0.100,20729.000,0.200,3339.000,0.300,1702.000,0.500,2152.000,1.000,968.000,5.000,0
"04/09/08","16:08:13",28718.000,"cc",28316.387,6.00,6,0.100,20579.000,0.200,3388.000,0.300,1644.000,0.500,2115.000,1.000,991.000,5.000,1.000
"04/09/08","16:08:19",28908.000,"cc",28319.051,6.00,6,0.100,20750.000,0.200,3472.000,0.300,1701.000,0.500,2044.000,1.000,940.000,5.000,1.000
"04/09/08","16:08:25",28975.000,"cc",28426.881,6.00,6,0.100,20917.000,0.200,3405.000,0.300,1649.000,0.500,2019.000,1.000,985.000,5.000,0
"04/09/08","16:08:31",28002.000,"cc",28164.695,6.00,6,0.100,20166.000,0.200,3162.000,0.300,1669.000,0.500,1985.000,1.000,1018.000,5.000,2.000
"04/09/08","16:08:37",28818.000,"cc",28147.643,6.00,6,0.100,20513.000,0.200,3446.000,0.300,1695.000,0.500,2137.000,1.000,1026.000,5.000,1.000
"04/09/08","16:08:43",29314.000,"cc",28240.248,6.00,6,0.100,20532.000,0.200,3585.000,0.300,1832.000,0.500,2291.000,1.000,1074.000,5.000,0
"04/09/08","16:08:49",29392.000,"cc",28430.057,6.00,6,0.100,20735.000,0.200,3497.000,0.300,1818.000,0.500,2283.000,1.000,1059.000,5.000,0
"04/09/08","16:08:55",28855.000,"cc",28319.334,6.00,6,0.100,20589.000,0.200,3451.000,0.300,1736.000,0.500,2140.000,1.000,939.000,5.000,0
"04/09/08","16:09:01",28732.000,"cc",28326.586,6.00,6,0.100,20527.000,0.200,3307.000,0.300,1804.000,0.500,2136.000,1.000,957.000,5.000,1.000
"04/09/08","16:09:07",29093.000,"cc",28163.443,6.00,6,0.100,20656.000,0.200,3401.000,0.300,1816.000,0.500,2207.000,1.000,1013.000,5.000,0
"04/09/08","16:09:13",29049.000,"cc",28331.455,6.00,6,0.100,20835.000,0.200,3388.000,0.300,1690.000,0.500,2151.000,1.000,984.000,5.000,1.000
"04/09/08","16:09:19",29292.000,"cc",28441.191,6.00,6,0.100,20919.000,0.200,3466.000,0.300,1698.000,0.500,2208.000,1.000,1001.000,5.000,0
"04/09/08","16:09:25",29197.000,"cc",28298.178,6.00,6,0.100,20811.000,0.200,3419.000,0.300,1807.000,0.500,2178.000,1.000,982.000,5.000,0
"04/09/08","16:09:31",29170.000,"cc",28357.143,6.00,6,0.100,21045.000,0.200,3405.000,0.300,1665.000,0.500,2120.000,1.000,935.000,5.000,0
"04/09/08","16:09:37",28681.000,"cc",28322.598,6.00,6,0.100,20667.000,0.200,3245.000,0.300,1713.000,0.500,2044.000,1.000,1012.000,5.000,0
"04/09/08","16:09:43",29236.000,"cc",28260.570,6.00,6,0.100,20847.000,0.200,3483.000,0.300,1774.000,0.500,2184.000,1.000,948.000,5.000,0
"04/09/08","16:09:49",29425.000,"cc",28225.078,6.00,6,0.100,20776.000,0.200,3495.000,0.300,1819.000,0.500,2273.000,1.000,1062.000,5.000,0
"04/09/08","16:09:55",29877.000,"cc",28270.742,6.00,6,0.100,21245.000,0.200,3568.000,0.300,1780.000,0.500,2239.000,1.000,1045.000,5.000,0
"04/09/08","16:10:01",29499.000,"cc",28242.965,6.00,6,0.100,21144.000,0.200,3378.000,0.300,1754.000,0.500,2210.000,1.000,1012.000,5.000,1.000
"04/09/08","16:10:07",30017.000,"cc",28421.199,6.00,6,0.100,21454.000,0.200,3454.000,0.300,1819.000,0.500,2215.000,1.000,1075.000,5.000,0
"04/09/08","16:10:13",29357.000,"cc",28350.193,6.00,6,0.100,20957.000,0.200,3426.000,0.300,1747.000,0.500,2239.000,1.000,987.000,5.000,1.000
"04/09/08","16:10:19",29248.000,"cc",28244.059,6.00,6,0.100,21068.000,0.200,3356.000,0.300,1675.000,0.500,2145.000,1.000,1003.000,5.000,1.000
"04/09/08","16:10:25",29005.000,"cc",28341.895,6.00,6,0.100,20754.000,0.200,3404.000,0.300,1743.000,0.500,2100.000,1.000,1003.000,5.000,1.000
"04/09/08","16:10:31",29218.000,"cc",28376.764,6.00,6,0.100,20918.000,0.200,3449.000,0.300,1757.000,0.500,2089.000,1.000,1005.000,5.000,0
"04/09/08","16:10:37",29221.000,"cc",28373.365,6.00,6,0.100,20731.000,0.200,3485.000,0.300,1850.000,0.500,2174.000,1.000,981.000,5.000,0
"04/09/08","16:10:43",28628.000,"cc",28436.992,6.00,6,0.100,20419.000,0.200,3447.000,0.300,1693.000,0.500,2022.000,1.000,1047.000,5.000,0
"04/09/08","16:10:49",28853.000,"cc",28229.744,6.00,6,0.100,20554.000,0.200,3425.000,0.300,1734.000,0.500,2090.000,1.000,1049.000,5.000,1.000
"04/09/08","16:10:55",29040.000,"cc",28313.475,6.00,6,0.100,20565.000,0.200,3531.000,0.300,1668.000,0.500,2213.000,1.000,1062.000,5.000,1.000
"04/09/08","16:11:01",28714.000,"cc",28250.621,6.00,6,0.100,20636.000,0.200,3389.000,0.300,1623.000,0.500,2113.000,1.000,953.000,5.000,0
"04/09/08","16:11:07",29567.000,"cc",28389.178,6.00,6,0.100,21313.000,0.200,3380.000,0.300,1680.000,0.500,2121.000,1.000,1073.000,5.000,0
"04/09/08","16:11:13",30044.000,"cc",28398.629,6.00,6,0.100,22014.000,0.200,3430.000,0.300,1587.000,0.500,2022.000,1.000,989.000,5.000,2.000
"04/09/08","16:11:19",30386.000,"cc",28249.227,6.00,6,0.100,22041.000,0.200,3417.000,0.300,1703.000,0.500,2126.000,1.000,1098.000,5.000,1.000
"04/09/08","16:11:25",30390.000,"cc",28325.801,6.00,6,0.100,22231.000,0.200,3431.000,0.300,1658.000,0.500,2055.000,1.000,1014.000,5.000,1.000
"04/09/08","16:11:31",30209.000,"cc",28280.277,6.00,6,0.100,21986.000,0.200,3368.000,0.300,1757.000,0.500,2128.000,1.000,970.000,5.000,0
"04/09/08","16:11:37",30417.000,"cc",28413.022,6.00,6,0.100,21969.000,0.200,3446.000,0.300,1775.000,0.500,2152.000,1.000,1075.000,5.000,0
"04/09/08","16:11:43",30320.000,"cc",28388.193,6.00,6,0.100,22136.000,0.200,3538.000,0.300,1595.000,0.500,2050.000,1.000,1001.000,5.000,0
"04/09/08","16:11:49",30242.000,"cc",28170.035,6.00,6,0.100,22069.000,0.200,3370.000,0.300,1649.000,0.500,2148.000,1.000,1004.000,5.000,2.000
"04/09/08","16:11:55",30105.000,"cc",28291.375,6.00,6,0.100,21795.000,0.200,3438.000,0.300,1723.000,0.500,2085.000,1.000,1064.000,5.000,0
"04/09/08","16:12:01",30086.000,"cc",28396.768,6.00,6,0.100,22025.000,0.200,3325.000,0.300,1654.000,0.500,2074.000,1.000,1008.000,5.000,0
"04/09/08","16:12:07",29843.000,"cc",28338.270,6.00,6,0.100,21742.000,0.200,3356.000,0.300,1681.000,0.500,2075.000,1.000,989.000,5.000,0
"04/09/08","16:12:13",30313.000,"cc",28297.272,6.00,6,0.100,21985.000,0.200,3403.000,0.300,1731.000,0.500,2124.000,1.000,1068.000,5.000,2.000
"04/09/08","16:12:19",29768.000,"cc",28309.121,6.00,6,0.100,21811.000,0.200,3310.000,0.300,1646.000,0.500,2032.000,1.000,969.000,5.000,0
"04/09/08","16:12:25",30485.000,"cc",28279.301,6.00,6,0.100,22067.000,0.200,3449.000,0.300,1775.000,0.500,2152.000,1.000,1042.000,5.000,0
"04/09/08","16:12:31",29997.000,"cc",28281.061,6.00,6,0.100,21777.000,0.200,3405.000,0.300,1675.000,0.500,2120.000,1.000,1018.000,5.000,2.000
"04/09/08","16:12:37",29368.000,"cc",28319.998,6.00,6,0.100,21057.000,0.200,3426.000,0.300,1728.000,0.500,2145.000,1.000,1011.000,5.000,1.000
"04/09/08","16:12:43",29542.000,"cc",28391.570,6.00,6,0.100,21169.000,0.200,3397.000,0.300,1805.000,0.500,2197.000,1.000,973.000,5.000,1.000
"04/09/08","16:12:49",29232.000,"cc",28285.014,6.00,6,0.100,21129.000,0.200,3323.000,0.300,1709.000,0.500,2063.000,1.000,1006.000,5.000,2.000
"04/09/08","16:12:55",30130.000,"cc",28292.660,6.00,6,0.100,21600.000,0.200,3474.000,0.300,1852.000,0.500,2182.000,1.000,1020.000,5.000,2.000
"04/09/08","16:13:01",31111.000,"cc",28315.602,6.00,6,0.100,22090.000,0.200,3680.000,0.300,1887.000,0.500,2365.000,1.000,1088.000,5.000,1.000
"04/09/08","16:13:07",30301.000,"cc",28346.307,6.00,6,0.100,21565.000,0.200,3623.000,0.300,1793.000,0.500,2242.000,1.000,1077.000,5.000,1.000
"04/09/08","16:13:13",29822.000,"cc",28466.588,6.00,6,0.100,21617.000,0.200,3451.000,0.300,1715.000,0.500,2072.000,1.000,966.000,5.000,1.000
"04/09/08","16:13:19",30044.000,"cc",28261.490,6.00,6,0.100,21323.000,0.200,3542.000,0.300,1815.000,0.500,2242.000,1.000,1121.000,5.000,1.000
"04/09/08","16:13:25",30039.000,"cc",28108.457,6.00,6,0.100,21159.000,0.200,3527.000,0.300,1897.000,0.500,2289.000,1.000,1167.000,5.000,0
"04/09/08","16:13:31",29965.000,"cc",28302.123,6.00,6,0.100,21276.000,0.200,3490.000,0.300,1853.000,0.500,2271.000,1.000,1075.000,5.000,0
"04/09/08","16:13:37",29577.000,"cc",28397.455,6.00,6,0.100,21241.000,0.200,3423.000,0.300,1743.000,0.500,2104.000,1.000,1065.000,5.000,1.000
"04/09/08","16:13:43",28838.000,"cc",28340.270,6.00,6,0.100,20595.000,0.200,3373.000,0.300,1742.000,0.500,2082.000,1.000,1046.000,5.000,0
"04/09/08","16:13:49",29321.000,"cc",28228.592,6.00,6,0.100,20752.000,0.200,3502.000,0.300,1754.000,0.500,2174.000,1.000,1139.000,5.000,0
"04/09/08","16:13:55",28503.000,"cc",28323.272,6.00,6,0.100,20293.000,0.200,3335.000,0.300,1716.000,0.500,2117.000,1.000,1041.000,5.000,1.000
"04/09/08","16:14:01",28664.000,"cc",28336.129,6.00,6,0.100,20490.000,0.200,3369.000,0.300,1693.000,0.500,2072.000,1.000,1040.000,5.000,0
"04/09/08","16:14:07",28567.000,"cc",28326.160,6.00,6,0.100,20330.000,0.200,3425.000,0.300,1646.000,0.500,2110.000,1.000,1056.000,5.000,0
"04/09/08","16:14:13",29298.000,"cc",28293.055,6.00,6,0.100,20529.000,0.200,3564.000,0.300,1852.000,0.500,2270.000,1.000,1083.000,5.000,0
"04/09/08","16:14:19",28921.000,"cc",28401.166,6.00,6,0.100,20807.000,0.200,3366.000,0.300,1682.000,0.500,2073.000,1.000,992.000,5.000,1.000
"04/09/08","16:14:25",28882.000,"cc",28239.438,6.00,6,0.100,20628.000,0.200,3379.000,0.300,1687.000,0.500,2142.000,1.000,1046.000,5.000,0
"04/09/08","16:14:31",28719.000,"cc",28348.350,6.00,6,0.100,20520.000,0.200,3427.000,0.300,1670.000,0.500,2100.000,1.000,1002.000,5.000,0
"04/09/08","16:14:37",28226.000,"cc",28276.619,6.00,6,0.100,20109.000,0.200,3338.000,0.300,1700.000,0.500,2005.000,1.000,1073.000,5.000,1.000
"04/09/08","16:14:43",28395.000,"cc",28241.492,6.00,6,0.100,20185.000,0.200,3328.000,0.300,1690.000,0.500,2118.000,1.000,1073.000,5.000,1.000
"04/09/08","16:14:49",28602.000,"cc",28139.547,6.00,6,0.100,20164.000,0.200,3556.000,0.300,1670.000,0.500,2131.000,1.000,1080.000,5.000,1.000
"04/09/08","16:14:55",28518.000,"cc",28460.932,6.00,6,0.100,20562.000,0.200,3362.000,0.300,1588.000,0.500,2022.000,1.000,983.000,5.000,1.000
"04/09/08","16:15:01",28493.000,"cc",28417.955,6.00,6,0.100,20399.000,0.200,3399.000,0.300,1633.000,0.500,2063.000,1.000,999.000,5.000,0
"04/09/08","16:15:07",28730.000,"cc",28317.988,6.00,6,0.100,20675.000,0.200,3392.000,0.300,1661.000,0.500,2014.000,1.000,988.000,5.000,0
"04/09/08","16:15:13",28633.000,"cc",28295.375,6.00,6,0.100,20407.000,0.200,3415.000,0.300,1722.000,0.500,2069.000,1.000,1020.000,5.000,0
"04/09/08","16:15:19",28674.000,"cc",28216.045,6.00,6,0.100,20377.000,0.200,3343.000,0.300,1713.000,0.500,2154.000,1.000,1087.000,5.000,0
"04/09/08","16:15:25",28610.000,"cc",28236.240,6.00,6,0.100,20273.000,0.200,3478.000,0.300,1686.000,0.500,2130.000,1.000,1042.000,5.000,1.000
"04/09/08","16:15:31",28949.000,"cc",28297.379,6.00,6,0.100,20481.000,0.200,3521.000,0.300,1682.000,0.500,2132.000,1.000,1133.000,5.000,0
"04/09/08","16:15:37",28906.000,"cc",28270.482,6.00,6,0.100,20477.000,0.200,3438.000,0.300,1725.000,0.500,2176.000,1.000,1089.000,5.000,1.000
"04/09/08","16:15:43",29258.000,"cc",28239.721,6.00,6,0.100,20688.000,0.200,3493.000,0.300,1794.000,0.500,2168.000,1.000,1114.000,5.000,1.000
"04/09/08","16:15:49",29595.000,"cc",28287.647,6.00,6,0.100,20890.000,0.200,3598.000,0.300,1824.000,0.500,2247.000,1.000,1035.000,5.000,1.000
"04/09/08","16:15:55",29304.000,"cc",28389.576,6.00,6,0.100,20641.000,0.200,3536.000,0.300,1785.000,0.500,2181.000,1.000,1158.000,5.000,3.000
"04/09/08","16:16:01",29509.000,"cc",28344.018,6.00,6,0.100,21000.000,0.200,3433.000,0.300,1839.000,0.500,2178.000,1.000,1059.000,5.000,0
"04/09/08","16:16:07",29161.000,"cc",28434.352,6.00,6,0.100,20758.000,0.200,3483.000,0.300,1770.000,0.500,2119.000,1.000,1029.000,5.000,2.000